Regional Weather Roundup
Issued by NWS

Home | Current Version | Previous Version | Graphics & Text | Print | Product List | Glossary On
Versions: 1 2 3 4 5 6 7 8 9 10 11 12 13 14 15 16 17 18 19 20 21 22 23 24 25 26 27 28 29 30 31 32 33 34 35 36 37 38 39 40 41 42 43 44 45 46 47 48 49 50
000
ASUS45 KTFX 312204
RWRMT
MONTANA HOURLY WEATHER ROUNDUP
NATIONAL WEATHER SERVICE GREAT FALLS MT
404 PM MDT THU JUL 31 2014

NOTE: "FAIR" INDICATES FEW OR NO CLOUDS BELOW 12000 FEET WITH NO
SIGNIFICANT WEATHER AND/OR OBSTRUCTIONS TO VISIBILITY.

* THESE STATIONS ARE NOT UNDER NWS QUALITY CONTROL. THEY DO NOT
   REPORT WEATHER SUCH AS PRECIPITATION OR FOG.

MTZ001>007-043-312300-
WEST OF THE DIVIDE
CITY           SKY/WX    TMP DP  RH WIND       PRES   REMARKS
KALISPELL      SUNNY     91  48  23 CALM      30.06F
MISSOULA       PTCLDY    93  36  13 VRB5      30.08F
BUTTE          LGT RAIN  79  43  28 NE23G31   30.25F
MULLAN PASS    SUNNY     79  36  21 VRB3      30.30F
* ESSEX        N/A      N/A N/A N/A N/A        N/A
* LINCOLN      N/A       90  42  19 E4G14      N/A
* LOOKOUT PASS N/A       85  36  17 VRB6       N/A
* POLSON       N/A       94  47  20 N3G11      N/A
* RONAN APT    SUNNY     90  48  24 N/A        N/A
* SEELEY LAKE  N/A       89  35  15 NW8G18     N/A
* THOMP F APT  SUNNY     79  42  27 NW4G11     N/A
$$

MTZ008-052>055-312300-
SOUTHWEST MONTANA
CITY           SKY/WX    TMP DP  RH WIND       PRES   REMARKS
BOZEMAN        PTCLDY    88  36  16 NW7       30.16F
DILLON         PTSUNNY   82  45  27 NW5       30.21F
W YELLOWSTONE  CLOUDY    72  37  28 N8G18     30.33R
* THREE FORKS  PTSUNNY   84  41  22 N/A        N/A
* BOULDER HILL N/A       81  41  24 N3G14      N/A
* MONIDA PASS  N/A       74  41  31 NE8        N/A
* RAYNOLDS PAS N/A       75  74  97 VRB6       N/A
* WHITEHALL    N/A       83  41  23 W6G14      N/A
* WISE RIVER   N/A       77  45  32 W6G14      N/A
$$

MTZ009>010-012-014-046-048-049-054-312300-
EAST SLOPES AND CENTRAL MONTANA
CITY           SKY/WX    TMP DP  RH WIND       PRES   REMARKS
CUT BANK       CLOUDY    84  45  26 W17G22    30.14R
GREAT FALLS    PTCLDY    90  34  14 NW6       30.09S
HELENA         PTSUNNY   91  43  19 N20G26    30.12F
MALMSTROM AFB  PTCLDY    91  34  13 N9        30.08F
* CONRAD       CLOUDY    82  46  28 W10G22     N/A
* EAST GLACIER N/A       77  49  37 NW1        N/A
* MONARCH      N/A       83  38  20 N11G21     N/A
* PENDROY      N/A       79  43  28 S4G24      N/A
* ROGERS PASS  N/A       77  37  24 W4G12      N/A
* SAINT MARY   N/A       78  56  47 NE3G10     N/A
* SWEET GRASS  N/A       86  41  20 NE8G14     N/A
$$

MTZ011-013-016-021-035-040-045-047-050-051-312300-
NORTH CENTRAL MONTANA
CITY           SKY/WX    TMP DP  RH WIND       PRES   REMARKS
HAVRE          PTCLDY    97  43  16 W8        29.99F
LEWISTOWN      PTCLDY    91  37  15 NE9       30.12F
* CHESTER      N/A       90  41  18 NE6G14     N/A
* DENTON       N/A       92  48  22 SW2G11     N/A
* GEYSER       N/A       90  44  20 W6G14      N/A
* JUDITH GAP   N/A       86  49  28 W7G12      N/A
* LOMA         N/A       96  35  12 N7G14      N/A
$$

MTZ017>020-022>027-061-062-312300-
NORTHEAST MONTANA
CITY           SKY/WX    TMP DP  RH WIND       PRES   REMARKS
GLASGOW        PTCLDY    99  37  12 W10       29.95F
GLENDIVE       PTCLDY    93  43  18 W9        30.02F
JORDAN         PTCLDY    99  32   9 W9        29.99F
SIDNEY         PTCLDY    95  52  23 E8        30.00F
WOLF POINT     SUNNY     99  37  12 VRB6      29.95F
* BEAVER HILL  N/A       90  45  21 NW10G23    N/A
* CIRCLE       N/A       96  46  18 W2G8       N/A
* LINDSAY DVD  N/A       91  43  19 SW9G16     N/A
* NAVAJO       N/A       89  51  27 SE5        N/A
$$

MTZ028>042-056>058-312300-
SOUTHCENTRAL AND SOUTHEAST MONTANA
CITY           SKY/WX    TMP DP  RH WIND       PRES   REMARKS
BAKER          PTCLDY    91  37  15 NW15      30.08F
BILLINGS       PTCLDY    90  39  17 CALM      30.08F
LIVINGSTON     PTCLDY    91  36  14 N/A       30.14F
MILES CITY     PTCLDY    95  28   9 VRB6      30.02F
* LAUREL APT   PTCLDY    91  43  19 SE5        N/A
* ROUNDUP APT  PTSUNNY   91  39  16 N14        N/A
* ALZADA       N/A       89  43  20 N/A        N/A
* HYSHAM       N/A       93  46  20 NE6        N/A
* LAME DEER    N/A       87  37  17 N/A        N/A
* REED POINT   N/A       93  46  20 W12        N/A
* ROSCOE HILL  N/A       86  42  21 SW6G12     N/A
$$

REGIONAL REPORTS...DAKOTAS
CITY           SKY/WX    TMP DP  RH WIND       PRES   REMARKS
WILLISTON      SUNNY     90  54  29 E9        30.02F
DICKINSON      SUNNY     88  50  27 W5        30.06F
CROSBY         SUNNY     82  59  46 SE8       30.05F HI  82
TIOGA          SUNNY     82  57  43 SE9       30.09F HI  82
WATFORD CITY   SUNNY     86  54  33 E8        30.02F
BISMARCK       SUNNY     88  48  25 CALM      30.06F
GRAND FORKS    PTCLDY    84  61  46 NW5       30.00S HI  84
FARGO          SUNNY     82  57  43 N6        30.01S HI  82
BUFFALO SD     PTCLDY    84  46  26 N6        30.05S
RAPID CITY     PTCLDY    88  46  23 N7        30.12F
$$

REGIONAL REPORTS...WYOMING/IDAHO/WASHINGTON
CITY           SKY/WX    TMP DP  RH WIND       PRES   REMARKS
GILLETTE       SUNNY     88  36  16 VRB6      30.16F
SHERIDAN       PTCLDY    88  39  18 VRB7      30.12F
CODY           PTSUNNY   82  37  20 NE7       30.19F
YELLOWSTONE LA PTSUNNY   64  39  40 CALM      30.43F
SALMON         PTCLDY    90  39  17 S3        30.07F
MULLAN PASS    SUNNY     79  36  21 VRB3      30.30S
SAND POINT     SUNNY     90  54  29 E6        30.01F
SPOKANE        PTCLDY    97  28   8 W9G16     30.02F

$$



USA.gov is the U.S. government's official web portal to all federal, state and local government web resources and services.